| time (UTC) | temp F | wind direction | speed MPH | gust MPH | rain 1hr in | rain 24hr in | rain mn in | humidity % | barometer mb |
| 20260502233020 | 45 | 267 | 7.0 | 0.0 | 0.00 | 0.00 | 0.00 | 44 | 987.9 |
| 20260502231509 | 46 | 269 | 8.0 | 0.0 | 0.00 | 0.00 | 0.00 | 44 | 987.9 |
| 20260502230031 | 46 | 271 | 10.0 | 0.0 | 0.00 | 0.00 | 0.00 | 44 | 987.9 |
| 20260502224509 | 46 | 274 | 10.0 | 0.0 | 0.00 | 0.00 | 0.00 | 42 | 988.4 |
| 20260502223027 | 47 | 271 | 11.0 | 0.0 | 0.00 | 0.00 | 0.00 | 43 | 989.1 |
| 20260502221509 | 47 | 272 | 12.0 | 0.0 | 0.00 | 0.00 | 0.00 | 43 | 989.0 |
| 20260502220027 | 47 | 271 | 12.0 | 0.0 | 0.00 | 0.00 | 0.00 | 43 | 989.0 |
| 20260502214509 | 47 | 271 | 12.0 | 0.0 | 0.00 | 0.00 | 0.00 | 46 | 989.1 |
| 20260502213026 | 47 | 274 | 10.0 | 0.0 | 0.00 | 0.00 | 0.00 | 42 | 988.8 |
| 20260502211509 | 47 | 270 | 10.0 | 0.0 | 0.00 | 0.00 | 0.00 | 42 | 988.8 |
| 20260502210030 | 47 | 268 | 10.0 | 0.0 | 0.00 | 0.00 | 0.00 | 42 | 988.8 |
| 20260502204509 | 47 | 265 | 10.0 | 0.0 | 0.00 | 0.00 | 0.00 | 42 | 989.1 |
| 20260502203026 | 47 | 267 | 11.0 | 0.0 | 0.00 | 0.00 | 0.00 | 39 | 989.6 |
| 20260502201509 | 47 | 268 | 12.0 | 0.0 | 0.00 | 0.00 | 0.00 | 39 | 989.6 |
| 20260502200029 | 47 | 269 | 11.0 | 0.0 | 0.00 | 0.00 | 0.00 | 39 | 989.6 |
| 20260502194509 | 47 | 271 | 11.0 | 0.0 | 0.00 | 0.00 | 0.00 | 42 | 989.9 |
| 20260502193020 | 47 | 273 | 12.0 | 0.0 | 0.00 | 0.00 | 0.00 | 42 | 989.9 |
| 20260502191509 | 47 | 275 | 12.0 | 0.0 | 0.00 | 0.00 | 0.00 | 42 | 989.9 |
| 20260502190030 | 46 | 275 | 12.0 | 0.0 | 0.00 | 0.00 | 0.00 | 42 | 989.9 |
| 20260502184509 | 46 | 276 | 12.0 | 0.0 | 0.00 | 0.00 | 0.00 | 45 | 989.8 |
| 20260502183027 | 47 | 280 | 11.0 | 0.0 | 0.00 | 0.00 | 0.00 | 44 | 989.8 |
| 20260502181508 | 47 | 279 | 11.0 | 0.0 | 0.00 | 0.00 | 0.00 | 44 | 989.8 |
| 20260502163027 | 45 | 275 | 8.0 | 0.0 | 0.00 | 0.00 | 0.00 | 43 | 989.5 |
| 20260502161509 | 44 | 276 | 8.0 | 0.0 | 0.00 | 0.00 | 0.00 | 43 | 989.4 |
| 20260502151510 | 42 | 285 | 6.0 | 0.0 | 0.00 | 0.00 | 0.00 | 50 | 989.5 |
| 20260502123026 | 35 | 313 | 4.0 | 0.0 | 0.00 | 0.00 | 0.00 | 79 | 989.9 |
| 20260502121509 | 34 | 317 | 5.0 | 0.0 | 0.00 | 0.00 | 0.00 | 79 | 989.9 |
| 20260502114509 | 33 | 301 | 4.0 | 0.0 | 0.00 | 0.00 | 0.00 | 83 | 989.6 |
| 20260502113028 | 32 | 279 | 2.0 | 0.0 | 0.00 | 0.00 | 0.00 | 83 | 989.6 |
| 20260502111509 | 32 | 261 | 2.0 | 0.0 | 0.00 | 0.00 | 0.00 | 83 | 989.6 |
| 20260502110031 | 31 | 262 | 3.0 | 0.0 | 0.00 | 0.00 | 0.00 | 83 | 989.6 |
| 20260502104509 | 31 | 253 | 3.0 | 0.0 | 0.00 | 0.00 | 0.00 | 82 | 989.4 |
| 20260502103026 | 31 | 252 | 2.0 | 0.0 | 0.00 | 0.00 | 0.00 | 87 | 989.7 |
| 20260502101509 | 31 | 246 | 2.0 | 0.0 | 0.00 | 0.00 | 0.00 | 87 | 989.7 |
| 20260502091509 | 31 | 262 | 3.0 | 0.0 | 0.00 | 0.00 | 0.00 | 88 | 989.2 |
| 20260502071509 | 32 | 291 | 4.0 | 0.0 | 0.00 | 0.00 | 0.00 | 80 | 988.3 |
| 20260502070027 | 32 | 299 | 4.0 | 0.0 | 0.00 | 0.00 | 0.00 | 80 | 988.3 |
| 20260502064509 | 32 | 299 | 4.0 | 0.0 | 0.00 | 0.00 | 0.00 | 77 | 989.5 |
| 20260502063027 | 32 | 299 | 4.0 | 0.0 | 0.00 | 0.00 | 0.00 | 78 | 989.4 |
| 20260502061509 | 32 | 294 | 4.0 | 0.0 | 0.00 | 0.00 | 0.00 | 78 | 989.4 |
| 20260502060033 | 33 | 297 | 4.0 | 0.0 | 0.00 | 0.00 | 0.00 | 78 | 989.4 |
| 20260502054509 | 33 | 306 | 4.0 | 0.0 | 0.00 | 0.00 | 0.00 | 74 | 988.5 |
| 20260502053027 | 33 | 302 | 5.0 | 0.0 | 0.00 | 0.00 | 0.00 | 77 | 988.9 |
| 20260502051509 | 33 | 302 | 5.0 | 0.0 | 0.00 | 0.00 | 0.00 | 77 | 988.9 |
| 20260502050031 | 33 | 308 | 5.0 | 0.0 | 0.00 | 0.00 | 0.00 | 77 | 988.9 |
| 20260502044510 | 34 | 308 | 5.0 | 0.0 | 0.00 | 0.00 | 0.00 | 70 | 988.5 |
| 20260502043026 | 34 | 323 | 5.0 | 0.0 | 0.00 | 0.00 | 0.00 | 71 | 988.6 |
| 20260502041509 | 34 | 326 | 6.0 | 0.0 | 0.00 | 0.00 | 0.00 | 71 | 988.6 |
| 20260502040028 | 34 | 320 | 7.0 | 0.0 | 0.00 | 0.00 | 0.00 | 71 | 988.6 |
| 20260502034509 | 35 | 313 | 7.0 | 0.0 | 0.00 | 0.00 | 0.00 | 65 | 988.1 |
| 20260502033027 | 35 | 312 | 6.0 | 0.0 | 0.00 | 0.00 | 0.00 | 70 | 987.7 |
| 20260502031509 | 35 | 309 | 5.0 | 0.0 | 0.00 | 0.00 | 0.00 | 70 | 987.7 |
| 20260502030030 | 35 | 308 | 6.0 | 0.0 | 0.00 | 0.00 | 0.00 | 70 | 987.7 |
| 20260502024509 | 36 | 302 | 5.0 | 0.0 | 0.00 | 0.00 | 0.00 | 64 | 987.1 |
| 20260502023026 | 36 | 312 | 8.0 | 0.0 | 0.00 | 0.00 | 0.00 | 66 | 988.1 |
| 20260502021509 | 37 | 301 | 8.0 | 0.0 | 0.00 | 0.00 | 0.00 | 66 | 988.1 |
| 20260502020027 | 37 | 293 | 9.0 | 0.0 | 0.00 | 0.00 | 0.00 | 66 | 988.1 |
| 20260502014509 | 38 | 291 | 8.0 | 0.0 | 0.00 | 0.00 | 0.00 | 64 | 988.2 |
| 20260502013024 | 38 | 288 | 8.0 | 0.0 | 0.00 | 0.00 | 0.00 | 64 | 988.2 |
| 20260502011509 | 37 | 279 | 8.0 | 0.0 | 0.00 | 0.00 | 0.00 | 64 | 988.2 |
| 20260502010024 | 38 | 284 | 8.0 | 0.0 | 0.00 | 0.00 | 0.00 | 64 | 988.2 |
| 20260502004508 | 38 | 288 | 8.0 | 0.0 | 0.00 | 0.00 | 0.00 | 57 | 988.7 |
| 20260502003025 | 39 | 286 | 8.0 | 0.0 | 0.00 | 0.00 | 0.00 | 60 | 989.1 |
| 20260502001509 | 40 | 287 | 9.0 | 0.0 | 0.00 | 0.00 | 0.00 | 60 | 989.1 |
| 20260502000031 | 41 | 291 | 10.0 | 0.0 | 0.00 | 0.00 | 0.00 | 60 | 989.1 |
| 20260501234509 | 42 | 291 | 11.0 | 0.0 | 0.00 | 0.00 | 0.00 | 59 | 987.4 |